Darstellungsparameter: Aktuell verwendete Einstellungen:
Skalierung der Graphiken ... ?
xyx+y,   Skalierungsfaktor:      Skalierung: Modus: x, Faktor: 1
Darstellungszeitraum ... ?
Vom - - bis: - -   Zeitraum: 29.04.2010 - 05.05.2010
Min/Max/Avg-Anzeige ... ?
Zeige MMA aktuell
Zeige MMA Monat
Zeige MMA alles
Zeige --A aktuell
Zeige --A Monat
Zeige --A alles
Keine MMA-Anzeige
MMA:
Average (ber die Originaldaten)
MMA-Basis: 29.04.2010 - 05.05.2010
Quicknavigation für Darstellung... ?
Tage:      1T, 2T, 3T, 5T -1T -2T -3T -5T +1T +2T +3T +5T
Wochen: 1W, 2W, 3W -1W -2W -3W +1W +2W +3W
Monate: 1M, 3M, 6M -1M -3M -6M +1M +3M +6M
Jahre:    1J, 3J, 5J, 10J -1J -3J -5J -10J +1J +3J +5J +10J
Nutze für die Darstellung ... ?
Originaldaten oder Mittelwerte auf ...
Stundenbasis Tagesbasis Wochenbasis
Monatsbasis Jahresbasis      Datenbasis: Original-Daten
Darstellen als:
Statistik (Auto) Statistik J:M      Darstellung:
Zur Graphik,    zurück zur Übersicht aller Sensoren.
 
Tabellarische Datenbersicht: ?
 
Sensor: Nr:Datum:Temp:Abs-Feuchte:Windchill:Wind:
Aussen-T/F 1 29-04-2010 00:03:04 16.2 C 5.79 g/m*3 16.2 C 0 km/h
2 29-04-2010 00:15:04 15.8 C 6.06 g/m*3 15.8 C 0 km/h
3 29-04-2010 00:27:05 15.4 C 5.78 g/m*3 15.4 C 0 km/h
4 29-04-2010 00:39:05 15.1 C 5.93 g/m*3 15.1 C 0 km/h
5 29-04-2010 00:51:05 14.7 C 5.79 g/m*3 14.7 C 0 km/h
6 29-04-2010 01:03:05 14.6 C 5.88 g/m*3 14.6 C 0 km/h
7 29-04-2010 01:15:05 14.2 C 5.74 g/m*3 14.2 C 0 km/h
8 29-04-2010 01:27:05 14 C 5.67 g/m*3 14 C 0 km/h
9 29-04-2010 01:39:05 13.8 C 5.72 g/m*3 13.8 C 0 km/h
10 29-04-2010 01:51:05 13.5 C 5.85 g/m*3 13.5 C 0 km/h
11 29-04-2010 02:03:05 13.6 C 5.88 g/m*3 13.6 C 0 km/h
12 29-04-2010 02:15:05 12.8 C 6.05 g/m*3 12.8 C 0 km/h
13 29-04-2010 02:27:05 12.9 C 6.09 g/m*3 12.9 C 0 km/h
14 29-04-2010 02:39:05 12.7 C 6.01 g/m*3 12.7 C 0 km/h
15 29-04-2010 02:51:05 12.5 C 6.16 g/m*3 12.5 C 0 km/h
16 29-04-2010 03:03:05 12.2 C 6.37 g/m*3 12.2 C 0 km/h
17 29-04-2010 03:15:05 12 C 6.29 g/m*3 12 C 0 km/h
18 29-04-2010 03:27:05 11.8 C 6.21 g/m*3 11.8 C 0 km/h
19 29-04-2010 03:39:05 11.8 C 6.31 g/m*3 11.8 C 0 km/h
20 29-04-2010 03:51:05 11.7 C 6.38 g/m*3 11.7 C 0 km/h
21 29-04-2010 04:03:05 11.7 C 6.38 g/m*3 11.7 C 0 km/h
22 29-04-2010 04:15:05 11.5 C 6.4 g/m*3 11.5 C 0 km/h
23 29-04-2010 04:27:06 11.2 C 6.49 g/m*3 11.2 C 0 km/h
24 29-04-2010 04:39:06 10.9 C 6.56 g/m*3 10.9 C 0 km/h
25 29-04-2010 04:51:06 10.8 C 6.42 g/m*3 10.8 C 0 km/h
Sensor: Nr:Datum:Temp:Abs-Feuchte:Windchill:Wind:
Aussen-T/F 26 29-04-2010 05:03:06 10.7 C 6.38 g/m*3 10.7 C 0 km/h
27 29-04-2010 05:15:06 10.6 C 6.34 g/m*3 10.6 C 0 km/h
28 29-04-2010 05:27:06 10.4 C 6.26 g/m*3 10.4 C 0 km/h
29 29-04-2010 05:39:06 10.3 C 6.32 g/m*3 10.3 C 0 km/h
30 29-04-2010 05:51:06 10.2 C 6.28 g/m*3 10.2 C 0 km/h
31 29-04-2010 06:03:06 10.1 C 6.24 g/m*3 10.1 C 0 km/h
32 29-04-2010 06:15:06 9.9 C 6.35 g/m*3 9.9 C 0 km/h
33 29-04-2010 06:27:06 9.7 C 6.45 g/m*3 9.7 C 0 km/h
34 29-04-2010 06:39:06 9.8 C 6.49 g/m*3 9.8 C 0 km/h
35 29-04-2010 06:51:01 9.8 C 6.49 g/m*3 9.8 C 0 km/h
36 29-04-2010 07:03:02 10 C 6.48 g/m*3 10 C 0 km/h
37 29-04-2010 07:15:01 10.1 C 6.52 g/m*3 10.1 C 0 km/h
38 29-04-2010 07:27:01 10.3 C 6.61 g/m*3 10.3 C 0 km/h
39 29-04-2010 07:39:02 10.3 C 6.61 g/m*3 10.3 C 0 km/h
40 29-04-2010 07:51:02 10.4 C 6.65 g/m*3 10.4 C 0 km/h
41 29-04-2010 08:03:02 10.9 C 6.76 g/m*3 10.9 C 0 km/h
42 29-04-2010 08:15:02 11.9 C 6.88 g/m*3 11.9 C 0 km/h
43 29-04-2010 08:27:02 12.5 C 6.71 g/m*3 12.5 C 0 km/h
44 29-04-2010 08:39:02 12.8 C 6.72 g/m*3 12.8 C 0 km/h
45 29-04-2010 08:51:01 12.9 C 6.76 g/m*3 12.9 C 0 km/h
46 29-04-2010 09:03:02 12.8 C 6.72 g/m*3 12.8 C 0 km/h
47 29-04-2010 09:15:02 13.1 C 6.62 g/m*3 13.1 C 0 km/h
48 29-04-2010 09:27:02 14 C 6.39 g/m*3 14 C 0 km/h
49 29-04-2010 09:39:02 14.9 C 6.5 g/m*3 14.9 C 0 km/h
50 29-04-2010 09:51:01 15.7 C 6.15 g/m*3 15.7 C 0 km/h
Sensor: Nr:Datum:Temp:Abs-Feuchte:Windchill:Wind:
Aussen-T/F 51 29-04-2010 10:03:02 16.6 C 6.36 g/m*3 16.6 C 0 km/h
52 29-04-2010 10:15:02 17.4 C 6.37 g/m*3 17.4 C 0 km/h
53 29-04-2010 10:27:02 17.7 C 6.49 g/m*3 17.7 C 0 km/h
54 29-04-2010 10:39:01 18.3 C 6.88 g/m*3 18.3 C 0 km/h
55 29-04-2010 10:51:01 19.3 C 6.8 g/m*3 19.3 C 0 km/h
56 29-04-2010 11:03:01 20.1 C 6.78 g/m*3 20.1 C 0 km/h
57 29-04-2010 11:15:02 20.9 C 6.74 g/m*3 20.9 C 0 km/h
58 29-04-2010 11:27:02 22 C 6.4 g/m*3 22 C 0 km/h
59 29-04-2010 11:39:01 22.3 C 6.12 g/m*3 22.3 C 0 km/h
60 29-04-2010 11:51:01 22.5 C 6.39 g/m*3 22.5 C 0 km/h
61 29-04-2010 12:03:01 22.7 C 6.26 g/m*3 22.7 C 0 km/h
62 29-04-2010 12:15:02 23.7 C 6.2 g/m*3 23.7 C 0 km/h
63 29-04-2010 12:27:02 24 C 5.87 g/m*3 24 C 0 km/h
64 29-04-2010 12:39:01 24.3 C 5.75 g/m*3 24.3 C 0 km/h
65 29-04-2010 12:51:03 24.7 C 4.75 g/m*3 24.7 C 0 km/h
66 29-04-2010 13:03:02 25.2 C 4.66 g/m*3 25.2 C 0 km/h
67 29-04-2010 13:15:03 25.7 C 4.79 g/m*3 25.7 C 0 km/h
68 29-04-2010 13:27:03 25.9 C 4.84 g/m*3 25.9 C 0 km/h
69 29-04-2010 13:39:02 26.1 C 4.9 g/m*3 26.1 C 0 km/h
70 29-04-2010 13:51:03 26.4 C 4.98 g/m*3 26.4 C 0 km/h
71 29-04-2010 14:03:02 26.4 C 4.98 g/m*3 26.4 C 0 km/h
72 29-04-2010 14:15:02 26.6 C 5.03 g/m*3 26.6 C 0 km/h
73 29-04-2010 14:27:02 27.1 C 5.18 g/m*3 27.1 C 0 km/h
74 29-04-2010 14:39:02 27 C 5.15 g/m*3 27 C 0 km/h
75 29-04-2010 14:51:02 28 C 5.44 g/m*3 28 C 0 km/h
Sensor: Nr:Datum:Temp:Abs-Feuchte:Windchill:Wind:
Aussen-T/F 76 29-04-2010 15:03:02 27.9 C 5.41 g/m*3 27.9 C 0 km/h
77 29-04-2010 15:15:02 27.6 C 5.32 g/m*3 27.6 C 0 km/h
78 29-04-2010 15:27:02 27.6 C 5.32 g/m*3 27.6 C 0 km/h
79 29-04-2010 15:39:01 27.6 C 5.32 g/m*3 27.6 C 0 km/h
80 29-04-2010 15:51:02 27.6 C 5.32 g/m*3 27.6 C 0 km/h
81 29-04-2010 16:03:01 27.9 C 5.41 g/m*3 27.9 C 0 km/h
82 29-04-2010 16:15:02 27.8 C 5.38 g/m*3 27.8 C 0 km/h
83 29-04-2010 16:27:02 27.9 C 5.41 g/m*3 27.9 C 0 km/h
84 29-04-2010 16:39:01 27.6 C 5.32 g/m*3 27.6 C 0 km/h
85 29-04-2010 16:51:03 27.8 C 5.38 g/m*3 27.8 C 0 km/h
86 29-04-2010 17:03:02 27.8 C 5.38 g/m*3 27.8 C 0 km/h
87 29-04-2010 17:15:02 27.8 C 5.38 g/m*3 27.8 C 0 km/h
88 29-04-2010 17:27:02 27.5 C 5.29 g/m*3 27.5 C 0 km/h
89 29-04-2010 17:39:02 27.8 C 5.38 g/m*3 27.8 C 0 km/h
90 29-04-2010 17:51:02 28.4 C 5.56 g/m*3 28.4 C 0 km/h
91 29-04-2010 18:03:02 28 C 5.44 g/m*3 28 C 0 km/h
92 29-04-2010 18:15:02 27.8 C 5.38 g/m*3 27.8 C 0 km/h
93 29-04-2010 18:27:02 27.5 C 5.29 g/m*3 27.5 C 0 km/h
94 29-04-2010 18:39:02 27.5 C 5.29 g/m*3 27.5 C 0 km/h
95 29-04-2010 18:51:02 27 C 5.15 g/m*3 27 C 0 km/h
96 29-04-2010 19:03:02 26.5 C 5.01 g/m*3 26.5 C 0 km/h
97 29-04-2010 19:15:02 26.1 C 4.9 g/m*3 26.1 C 0 km/h
98 29-04-2010 19:27:02 25.7 C 4.79 g/m*3 25.7 C 0 km/h
99 29-04-2010 19:39:02 25.3 C 4.68 g/m*3 25.3 C 0 km/h
100 29-04-2010 19:51:01 24.8 C 5.01 g/m*3 24.8 C 0 km/h
Sensor: Nr:Datum:Temp:Abs-Feuchte:Windchill:Wind:
Aussen-T/F 101 29-04-2010 20:03:02 24.4 C 5.12 g/m*3 24.4 C 0 km/h
102 29-04-2010 20:15:02 23.9 C 5.41 g/m*3 23.9 C 0 km/h
103 29-04-2010 20:27:02 23.6 C 5.53 g/m*3 23.6 C 0 km/h
104 29-04-2010 20:39:02 23.1 C 5.58 g/m*3 23.1 C 0 km/h
105 29-04-2010 20:51:02 22.6 C 6.03 g/m*3 22.6 C 0 km/h
106 29-04-2010 21:03:02 22.2 C 6.09 g/m*3 22.2 C 0 km/h
107 29-04-2010 21:15:02 21.9 C 6.37 g/m*3 21.9 C 0 km/h
108 29-04-2010 21:27:02 21.7 C 6.29 g/m*3 21.7 C 0 km/h
109 29-04-2010 21:39:01 21.6 C 6.45 g/m*3 21.6 C 0 km/h
110 29-04-2010 21:51:02 21.5 C 6.41 g/m*3 21.5 C 0 km/h
111 29-04-2010 22:03:01 21.4 C 6.56 g/m*3 21.4 C 0 km/h
112 29-04-2010 22:15:02 21.3 C 6.52 g/m*3 21.3 C 0 km/h
113 29-04-2010 22:27:02 21.1 C 6.63 g/m*3 21.1 C 0 km/h
114 29-04-2010 22:39:01 20.7 C 7.02 g/m*3 20.7 C 0 km/h
115 29-04-2010 22:51:02 20.5 C 7.12 g/m*3 20.5 C 0 km/h
116 29-04-2010 23:04:01 20.4 C 7.08 g/m*3 20.4 C 0 km/h
117 29-04-2010 23:16:01 20.1 C 7.13 g/m*3 20.1 C 0 km/h
118 29-04-2010 23:28:01 19.7 C 7.3 g/m*3 19.7 C 0 km/h
119 29-04-2010 23:40:01 19.5 C 7.22 g/m*3 19.5 C 0 km/h
120 29-04-2010 23:52:01 19.3 C 7.13 g/m*3 19.3 C 0 km/h
121 30-04-2010 00:04:01 19.4 C 7.17 g/m*3 19.4 C 0 km/h
122 30-04-2010 00:16:02 19.6 C 7.09 g/m*3 19.6 C 0 km/h
123 30-04-2010 00:28:02 19.7 C 6.96 g/m*3 19.7 C 0 km/h
124 30-04-2010 00:40:02 20 C 6.91 g/m*3 20 C 0 km/h
125 30-04-2010 00:52:02 20.3 C 6.68 g/m*3 20.3 C 0 km/h
Sensor: Nr:Datum:Temp:Abs-Feuchte:Windchill:Wind:
Aussen-T/F 126 30-04-2010 01:04:02 20.5 C 6.58 g/m*3 20.5 C 0 km/h
127 30-04-2010 01:16:02 20.8 C 6.7 g/m*3 20.8 C 0 km/h
128 30-04-2010 01:28:02 20.9 C 6.92 g/m*3 20.9 C 0 km/h
129 30-04-2010 01:40:02 20.7 C 6.84 g/m*3 20.7 C 0 km/h
130 30-04-2010 01:52:02 20.8 C 6.7 g/m*3 20.8 C 0 km/h
131 30-04-2010 02:04:02 20.8 C 6.7 g/m*3 20.8 C 0 km/h
132 30-04-2010 02:16:02 20.9 C 6.74 g/m*3 20.9 C 0 km/h
133 30-04-2010 02:28:02 21 C 6.59 g/m*3 21 C 0 km/h
134 30-04-2010 02:40:02 20.5 C 6.94 g/m*3 20.5 C 0 km/h
135 30-04-2010 02:52:02 20.6 C 6.98 g/m*3 20.6 C 0 km/h
136 30-04-2010 03:04:02 20.4 C 7.08 g/m*3 20.4 C 0 km/h
137 30-04-2010 03:16:02 20.1 C 7.13 g/m*3 20.1 C 0 km/h
138 30-04-2010 03:28:02 20.1 C 7.3 g/m*3 20.1 C 0 km/h
139 30-04-2010 03:40:02 19.8 C 7.69 g/m*3 19.8 C 0 km/h
140 30-04-2010 03:52:02 19.8 C 7.86 g/m*3 19.8 C 0 km/h
141 30-04-2010 04:04:02 19.7 C 7.81 g/m*3 19.7 C 0 km/h
142 30-04-2010 04:16:02 19.7 C 7.98 g/m*3 19.7 C 0 km/h
143 30-04-2010 04:28:02 19.4 C 8.18 g/m*3 19.4 C 0 km/h
144 30-04-2010 04:40:03 19.2 C 8.24 g/m*3 19.2 C 0 km/h
145 30-04-2010 04:52:03 18.9 C 8.42 g/m*3 18.9 C 0 km/h
146 30-04-2010 05:04:03 18.7 C 8.33 g/m*3 18.7 C 0 km/h
147 30-04-2010 05:16:03 18.6 C 8.44 g/m*3 18.6 C 0 km/h
148 30-04-2010 05:28:03 18.2 C 8.39 g/m*3 18.2 C 0 km/h
149 30-04-2010 05:40:03 17.9 C 8.7 g/m*3 17.9 C 0 km/h
150 30-04-2010 05:52:03 17.8 C 8.65 g/m*3 17.8 C 0 km/h
Sensor: Nr:Datum:Temp:Abs-Feuchte:Windchill:Wind:
Aussen-T/F 151 30-04-2010 06:04:03 17.5 C 8.65 g/m*3 17.5 C 0 km/h
152 30-04-2010 06:16:03 17.4 C 8.74 g/m*3 17.4 C 0 km/h
153 30-04-2010 06:28:03 17.3 C 8.69 g/m*3 17.3 C 0 km/h
154 30-04-2010 06:40:03 17.4 C 8.74 g/m*3 17.4 C 0 km/h
155 30-04-2010 06:52:03 17.2 C 8.64 g/m*3 17.2 C 0 km/h
156 30-04-2010 07:04:02 17.1 C 8.73 g/m*3 17.1 C 0 km/h
157 30-04-2010 07:16:01 17.3 C 8.84 g/m*3 17.3 C 0 km/h
158 30-04-2010 07:28:01 17.5 C 8.95 g/m*3 17.5 C 0 km/h
159 30-04-2010 07:40:02 17.7 C 8.9 g/m*3 17.7 C 0 km/h
160 30-04-2010 07:52:02 17.6 C 8.55 g/m*3 17.6 C 0 km/h
161 30-04-2010 08:04:02 18.1 C 8.19 g/m*3 18.1 C 0 km/h
162 30-04-2010 08:16:02 18.3 C 7.97 g/m*3 18.3 C 0 km/h
163 30-04-2010 08:28:02 18.3 C 7.97 g/m*3 18.3 C 0 km/h
164 30-04-2010 08:40:02 18.2 C 7.93 g/m*3 18.2 C 0 km/h
165 30-04-2010 08:52:02 18.4 C 8.02 g/m*3 18.4 C 0 km/h
166 30-04-2010 09:04:03 18.3 C 7.97 g/m*3 18.3 C 0 km/h
167 30-04-2010 09:16:02 18.3 C 7.82 g/m*3 18.3 C 0 km/h
168 30-04-2010 09:28:02 18.4 C 7.24 g/m*3 18.4 C 0 km/h
169 30-04-2010 09:40:02 18.5 C 6.65 g/m*3 18.5 C 0 km/h
170 30-04-2010 09:52:01 18.4 C 6.61 g/m*3 18.4 C 0 km/h
171 30-04-2010 10:04:02 18.3 C 6.57 g/m*3 18.3 C 0 km/h
172 30-04-2010 10:16:01 18.5 C 6.33 g/m*3 18.5 C 0 km/h
173 30-04-2010 10:28:01 18.6 C 6.37 g/m*3 18.6 C 0 km/h
174 30-04-2010 10:40:02 18.8 C 6.44 g/m*3 18.8 C 0 km/h
175 30-04-2010 10:52:02 18.6 C 5.73 g/m*3 18.6 C 0 km/h
Sensor: Nr:Datum:Temp:Abs-Feuchte:Windchill:Wind:
Aussen-T/F 176 30-04-2010 11:04:02 19 C 5.87 g/m*3 19 C 0 km/h
177 30-04-2010 11:16:02 18.9 C 5.83 g/m*3 18.9 C 0 km/h
178 30-04-2010 11:28:02 19 C 5.87 g/m*3 19 C 0 km/h
179 30-04-2010 11:40:02 19.5 C 6.04 g/m*3 19.5 C 0 km/h
180 30-04-2010 11:52:02 19.7 C 6.11 g/m*3 19.7 C 0 km/h
181 30-04-2010 12:04:02 20.6 C 6.09 g/m*3 20.6 C 0 km/h
182 30-04-2010 12:16:02 20.8 C 5.79 g/m*3 20.8 C 0 km/h
183 30-04-2010 12:28:02 19.9 C 6.01 g/m*3 19.9 C 0 km/h
184 30-04-2010 12:40:02 19.8 C 5.98 g/m*3 19.8 C 0 km/h
185 30-04-2010 12:52:01 20 C 5.88 g/m*3 20 C 0 km/h
186 30-04-2010 13:04:02 20.6 C 5.73 g/m*3 20.6 C 0 km/h
187 30-04-2010 13:16:01 20.7 C 5.76 g/m*3 20.7 C 0 km/h
188 30-04-2010 13:28:01 21 C 5.5 g/m*3 21 C 0 km/h
189 30-04-2010 13:40:01 21 C 5.5 g/m*3 21 C 0 km/h
190 30-04-2010 13:52:01 20.8 C 5.61 g/m*3 20.8 C 0 km/h
191 30-04-2010 14:04:02 20.5 C 5.69 g/m*3 20.5 C 0 km/h
192 30-04-2010 14:16:01 21.4 C 5.81 g/m*3 21.4 C 0 km/h
193 30-04-2010 14:28:01 20.9 C 5.65 g/m*3 20.9 C 0 km/h
194 30-04-2010 14:40:02 20.8 C 5.79 g/m*3 20.8 C 0 km/h
195 30-04-2010 14:52:02 20.8 C 6.34 g/m*3 20.8 C 0 km/h
196 30-04-2010 15:04:02 20.4 C 6.01 g/m*3 20.4 C 0 km/h
197 30-04-2010 15:16:01 20.7 C 6.12 g/m*3 20.7 C 0 km/h
198 30-04-2010 15:28:01 20.6 C 6.09 g/m*3 20.6 C 0 km/h
199 30-04-2010 15:40:02 20.9 C 6.19 g/m*3 20.9 C 0 km/h
200 30-04-2010 15:52:02 20.6 C 6.09 g/m*3 20.6 C 0 km/h
Sensor: Nr:Datum:Temp:Abs-Feuchte:Windchill:Wind:
Aussen-T/F 201 30-04-2010 16:04:02 19.7 C 5.94 g/m*3 19.7 C 0 km/h
202 30-04-2010 16:16:01 19.4 C 5.84 g/m*3 19.4 C 0 km/h
203 30-04-2010 16:28:01 19.6 C 5.91 g/m*3 19.6 C 0 km/h
204 30-04-2010 16:40:02 19.7 C 5.94 g/m*3 19.7 C 0 km/h
205 30-04-2010 16:52:02 19.5 C 6.04 g/m*3 19.5 C 0 km/h
206 30-04-2010 17:04:02 19.7 C 6.11 g/m*3 19.7 C 0 km/h
207 30-04-2010 17:16:02 19.8 C 5.98 g/m*3 19.8 C 0 km/h
208 30-04-2010 17:28:02 20 C 6.22 g/m*3 20 C 0 km/h
209 30-04-2010 17:40:02 19.4 C 6.01 g/m*3 19.4 C 0 km/h
210 30-04-2010 17:52:02 19.5 C 6.04 g/m*3 19.5 C 0 km/h
211 30-04-2010 18:04:02 19.5 C 6.04 g/m*3 19.5 C 0 km/h
212 30-04-2010 18:16:02 19.7 C 6.28 g/m*3 19.7 C 0 km/h
213 30-04-2010 18:28:02 19.2 C 5.94 g/m*3 19.2 C 0 km/h
214 30-04-2010 18:40:02 19.1 C 6.07 g/m*3 19.1 C 0 km/h
215 30-04-2010 18:52:02 18.9 C 6.16 g/m*3 18.9 C 0 km/h
216 30-04-2010 19:04:02 18.8 C 6.44 g/m*3 18.8 C 0 km/h
217 30-04-2010 19:16:03 18.7 C 6.24 g/m*3 18.7 C 0 km/h
218 30-04-2010 19:28:03 18.4 C 6.13 g/m*3 18.4 C 0 km/h
219 30-04-2010 19:40:02 18.1 C 6.18 g/m*3 18.1 C 0 km/h
220 30-04-2010 19:52:02 18.1 C 6.33 g/m*3 18.1 C 0 km/h
221 30-04-2010 20:04:02 18 C 6.3 g/m*3 18 C 0 km/h
222 30-04-2010 20:16:03 17.9 C 6.41 g/m*3 17.9 C 0 km/h
223 30-04-2010 20:28:03 17.7 C 6.49 g/m*3 17.7 C 0 km/h
224 30-04-2010 20:40:02 17 C 7.23 g/m*3 17 C 0 km/h
225 30-04-2010 20:52:02 16.3 C 7.77 g/m*3 16.3 C 0 km/h
Sensor: Nr:Datum:Temp:Abs-Feuchte:Windchill:Wind:
Aussen-T/F 226 30-04-2010 21:04:02 15.1 C 8.26 g/m*3 15.1 C 0 km/h
227 30-04-2010 21:16:02 14.7 C 8.69 g/m*3 14.7 C 0 km/h
228 30-04-2010 21:28:02 15.1 C 8.9 g/m*3 15.1 C 0 km/h
229 30-04-2010 21:40:02 15.3 C 8.75 g/m*3 15.3 C 0 km/h
230 30-04-2010 21:52:02 15.2 C 8.44 g/m*3 15.2 C 0 km/h
231 30-04-2010 22:04:02 15.3 C 8.23 g/m*3 15.3 C 0 km/h
232 30-04-2010 22:16:02 15.2 C 8.05 g/m*3 15.2 C 0 km/h
233 30-04-2010 22:28:02 14.9 C 8.16 g/m*3 14.9 C 0 km/h
234 30-04-2010 22:40:02 14.9 C 8.16 g/m*3 14.9 C 0 km/h
235 30-04-2010 22:52:01 14.8 C 8.11 g/m*3 14.8 C 0 km/h
236 30-04-2010 23:05:02 14.2 C 7.33 g/m*3 14.2 C 0 km/h
237 30-04-2010 23:17:02 13.8 C 7.15 g/m*3 13.8 C 0 km/h
238 30-04-2010 23:29:02 13.4 C 6.74 g/m*3 13.4 C 0 km/h
239 30-04-2010 23:41:02 13.1 C 6.39 g/m*3 13.1 C 0 km/h
240 30-04-2010 23:53:02 13.1 C 6.28 g/m*3 13.1 C 0 km/h
241 01-05-2010 00:05:02 13.2 C 6.32 g/m*3 13.2 C 0 km/h
242 01-05-2010 00:17:02 13.3 C 6.47 g/m*3 13.3 C 0 km/h
243 01-05-2010 00:29:02 13.3 C 6.47 g/m*3 13.3 C 0 km/h
244 01-05-2010 00:41:03 13.4 C 6.86 g/m*3 13.4 C 0 km/h
245 01-05-2010 00:53:03 13.4 C 6.86 g/m*3 13.4 C 0 km/h
246 01-05-2010 01:05:03 13.4 C 6.86 g/m*3 13.4 C 0 km/h
247 01-05-2010 01:17:03 13.3 C 6.59 g/m*3 13.3 C 0 km/h
248 01-05-2010 01:29:03 13.2 C 6.77 g/m*3 13.2 C 0 km/h
249 01-05-2010 01:41:03 13.1 C 7.07 g/m*3 13.1 C 0 km/h
250 01-05-2010 01:53:03 13 C 7.03 g/m*3 13 C 0 km/h
Sensor: Nr:Datum:Temp:Abs-Feuchte:Windchill:Wind:
Aussen-T/F 251 01-05-2010 02:05:03 12.9 C 7.1 g/m*3 12.9 C 0 km/h
252 01-05-2010 02:17:03 12.8 C 7.06 g/m*3 12.8 C 0 km/h
253 01-05-2010 02:29:03 12.9 C 6.88 g/m*3 12.9 C 0 km/h
254 01-05-2010 02:41:03 12.9 C 6.65 g/m*3 12.9 C 0 km/h
255 01-05-2010 02:53:03 12.9 C 6.54 g/m*3 12.9 C 0 km/h
256 01-05-2010 03:05:03 12.8 C 6.83 g/m*3 12.8 C 0 km/h
257 01-05-2010 03:17:03 12.7 C 6.79 g/m*3 12.7 C 0 km/h
258 01-05-2010 03:29:03 12.6 C 6.53 g/m*3 12.6 C 0 km/h
259 01-05-2010 03:41:03 12.5 C 6.49 g/m*3 12.5 C 0 km/h
260 01-05-2010 03:53:03 12.5 C 6.6 g/m*3 12.5 C 0 km/h
261 01-05-2010 04:05:03 12.5 C 6.82 g/m*3 12.5 C 0 km/h
262 01-05-2010 04:17:03 12.5 C 7.26 g/m*3 12.5 C 0 km/h
263 01-05-2010 04:29:03 12.5 C 7.04 g/m*3 12.5 C 0 km/h
264 01-05-2010 04:41:03 12.4 C 7.21 g/m*3 12.4 C 0 km/h
265 01-05-2010 04:53:03 12.4 C 7.21 g/m*3 12.4 C 0 km/h
266 01-05-2010 05:05:04 12.4 C 7.21 g/m*3 12.4 C 0 km/h
267 01-05-2010 05:17:04 12.4 C 7.32 g/m*3 12.4 C 0 km/h
268 01-05-2010 05:29:04 12.4 C 7.43 g/m*3 12.4 C 0 km/h
269 01-05-2010 05:41:04 12.3 C 7.49 g/m*3 12.3 C 0 km/h
270 01-05-2010 05:53:04 11.8 C 7.79 g/m*3 11.8 C 0 km/h
271 01-05-2010 06:05:04 11.6 C 8.11 g/m*3 11.6 C 0 km/h
272 01-05-2010 06:17:04 11.5 C 8.16 g/m*3 11.5 C 0 km/h
273 01-05-2010 06:29:04 11.5 C 8.37 g/m*3 11.5 C 0 km/h
274 01-05-2010 06:41:04 11.5 C 8.47 g/m*3 11.5 C 0 km/h
275 01-05-2010 06:53:04 11.4 C 8.42 g/m*3 11.4 C 0 km/h
Sensor: Nr:Datum:Temp:Abs-Feuchte:Windchill:Wind:
Aussen-T/F 276 01-05-2010 07:05:04 11.4 C 8.42 g/m*3 11.4 C 0 km/h
277 01-05-2010 07:17:04 11.4 C 8.31 g/m*3 11.4 C 0 km/h
278 01-05-2010 07:29:04 11.6 C 8.52 g/m*3 11.6 C 0 km/h
279 01-05-2010 07:41:02 11.8 C 8.63 g/m*3 11.8 C 0 km/h
280 01-05-2010 07:53:01 12.1 C 8.69 g/m*3 12.1 C 0 km/h
281 01-05-2010 08:05:02 12.6 C 8.85 g/m*3 12.6 C 0 km/h
282 01-05-2010 08:17:01 12.7 C 8.24 g/m*3 12.7 C 0 km/h
283 01-05-2010 08:29:01 13 C 7.94 g/m*3 13 C 0 km/h
284 01-05-2010 08:41:01 13.4 C 8.14 g/m*3 13.4 C 0 km/h
285 01-05-2010 08:53:01 13.6 C 8.12 g/m*3 13.6 C 0 km/h
286 01-05-2010 09:05:02 13.9 C 8.15 g/m*3 13.9 C 0 km/h
287 01-05-2010 09:17:01 14.3 C 7.99 g/m*3 14.3 C 0 km/h
288 01-05-2010 09:29:01 14.3 C 7.86 g/m*3 14.3 C 0 km/h
289 01-05-2010 09:41:01 14.2 C 8.06 g/m*3 14.2 C 0 km/h
290 01-05-2010 09:53:01 14 C 7.96 g/m*3 14 C 0 km/h
291 01-05-2010 10:05:02 14.3 C 7.74 g/m*3 14.3 C 0 km/h
292 01-05-2010 10:17:01 14.3 C 7.49 g/m*3 14.3 C 0 km/h
293 01-05-2010 10:29:01 14.7 C 7.81 g/m*3 14.7 C 0 km/h
294 01-05-2010 10:41:02 14.7 C 7.43 g/m*3 14.7 C 0 km/h
295 01-05-2010 10:53:02 15.1 C 7.22 g/m*3 15.1 C 0 km/h
296 01-05-2010 11:05:02 15.8 C 7.4 g/m*3 15.8 C 0 km/h
297 01-05-2010 11:17:01 15.9 C 6.91 g/m*3 15.9 C 0 km/h
298 01-05-2010 11:29:01 16.5 C 6.46 g/m*3 16.5 C 0 km/h
299 01-05-2010 11:41:02 16.9 C 6.33 g/m*3 16.9 C 0 km/h
300 01-05-2010 11:53:02 17.2 C 5.71 g/m*3 17.2 C 0 km/h
Sensor: Nr:Datum:Temp:Abs-Feuchte:Windchill:Wind:
Aussen-T/F 301 01-05-2010 12:05:02 17.6 C 5.85 g/m*3 17.6 C 0 km/h
302 01-05-2010 12:17:02 17.7 C 5.88 g/m*3 17.7 C 0 km/h
303 01-05-2010 12:29:02 17.6 C 5.85 g/m*3 17.6 C 0 km/h
304 01-05-2010 12:41:02 16.9 C 5.32 g/m*3 16.9 C 0 km/h
305 01-05-2010 12:53:02 17.6 C 5.7 g/m*3 17.6 C 0 km/h
306 01-05-2010 13:05:02 18.9 C 5.67 g/m*3 18.9 C 0 km/h
307 01-05-2010 13:17:02 18.6 C 5.09 g/m*3 18.6 C 0 km/h
308 01-05-2010 13:29:02 18.9 C 5.18 g/m*3 18.9 C 0 km/h
309 01-05-2010 13:41:02 18.9 C 5.02 g/m*3 18.9 C 0 km/h
310 01-05-2010 13:53:01 20.7 C 4.68 g/m*3 20.7 C 0 km/h
311 01-05-2010 14:05:02 19.1 C 4.92 g/m*3 19.1 C 0 km/h
312 01-05-2010 14:17:01 19.9 C 4.98 g/m*3 19.9 C 0 km/h
313 01-05-2010 14:29:01 19.7 C 4.92 g/m*3 19.7 C 0 km/h
314 01-05-2010 14:41:02 20.3 C 4.75 g/m*3 20.3 C 0 km/h
315 01-05-2010 14:53:02 20.1 C 4.87 g/m*3 20.1 C 0 km/h
316 01-05-2010 15:05:03 19.7 C 4.75 g/m*3 19.7 C 0 km/h
317 01-05-2010 15:17:02 19.9 C 4.81 g/m*3 19.9 C 0 km/h
318 01-05-2010 15:29:02 18.9 C 4.86 g/m*3 18.9 C 0 km/h
319 01-05-2010 15:41:02 18.8 C 4.99 g/m*3 18.8 C 0 km/h
320 01-05-2010 15:53:02 18.1 C 5.1 g/m*3 18.1 C 0 km/h
321 01-05-2010 16:05:02 17.7 C 5.28 g/m*3 17.7 C 0 km/h
322 01-05-2010 16:17:01 17.5 C 5.37 g/m*3 17.5 C 0 km/h
323 01-05-2010 16:29:01 17.5 C 5.52 g/m*3 17.5 C 0 km/h
324 01-05-2010 16:41:02 17.5 C 5.67 g/m*3 17.5 C 0 km/h
325 01-05-2010 16:53:01 17.7 C 5.73 g/m*3 17.7 C 0 km/h
Sensor: Nr:Datum:Temp:Abs-Feuchte:Windchill:Wind:
Aussen-T/F 326 01-05-2010 17:05:02 17.7 C 5.73 g/m*3 17.7 C 0 km/h
327 01-05-2010 17:17:01 17.9 C 5.8 g/m*3 17.9 C 0 km/h
328 01-05-2010 17:29:01 17.9 C 5.65 g/m*3 17.9 C 0 km/h
329 01-05-2010 17:41:02 17.7 C 5.73 g/m*3 17.7 C 0 km/h
330 01-05-2010 17:53:01 17.2 C 5.71 g/m*3 17.2 C 0 km/h
331 01-05-2010 18:05:02 17.4 C 5.93 g/m*3 17.4 C 0 km/h
332 01-05-2010 18:17:02 17.5 C 5.96 g/m*3 17.5 C 0 km/h
333 01-05-2010 18:29:02 17.6 C 6.15 g/m*3 17.6 C 0 km/h
334 01-05-2010 18:41:01 17.4 C 5.93 g/m*3 17.4 C 0 km/h
335 01-05-2010 18:53:01 17.4 C 5.78 g/m*3 17.4 C 0 km/h
336 01-05-2010 19:05:01 17 C 5.64 g/m*3 17 C 0 km/h
337 01-05-2010 19:17:01 16.9 C 5.9 g/m*3 16.9 C 0 km/h
338 01-05-2010 19:29:01 16.8 C 6 g/m*3 16.8 C 0 km/h
339 01-05-2010 19:41:01 16.7 C 6.11 g/m*3 16.7 C 0 km/h
340 01-05-2010 19:53:02 16.4 C 6 g/m*3 16.4 C 0 km/h
341 01-05-2010 20:05:02 16.3 C 5.97 g/m*3 16.3 C 0 km/h
342 01-05-2010 20:17:02 16 C 5.99 g/m*3 16 C 0 km/h
343 01-05-2010 20:29:02 15.7 C 6.15 g/m*3 15.7 C 0 km/h
344 01-05-2010 20:41:02 15.6 C 6.25 g/m*3 15.6 C 0 km/h
345 01-05-2010 20:53:02 15.6 C 6.38 g/m*3 15.6 C 0 km/h
346 01-05-2010 21:05:01 15.5 C 6.34 g/m*3 15.5 C 0 km/h
347 01-05-2010 21:17:02 15.3 C 6.27 g/m*3 15.3 C 0 km/h
348 01-05-2010 21:29:02 15 C 6.41 g/m*3 15 C 0 km/h
349 01-05-2010 21:41:02 14.7 C 6.55 g/m*3 14.7 C 0 km/h
350 01-05-2010 21:53:02 14.4 C 6.55 g/m*3 14.4 C 0 km/h
Sensor: Nr:Datum:Temp:Abs-Feuchte:Windchill:Wind:
Aussen-T/F 351 01-05-2010 22:05:02 14.3 C 6.63 g/m*3 14.3 C 0 km/h
352 01-05-2010 22:17:02 14.3 C 5.77 g/m*3 14.3 C 0 km/h
353 01-05-2010 22:29:02 14.2 C 5.74 g/m*3 14.2 C 0 km/h
354 01-05-2010 22:41:01 14.2 C 5.98 g/m*3 14.2 C 0 km/h
355 01-05-2010 22:54:02 14.1 C 6.07 g/m*3 14.1 C 0 km/h
356 01-05-2010 23:06:03 14.2 C 6.23 g/m*3 14.2 C 0 km/h
357 01-05-2010 23:18:03 14.2 C 6.23 g/m*3 14.2 C 0 km/h
358 01-05-2010 23:30:03 14.2 C 6.35 g/m*3 14.2 C 0 km/h
359 01-05-2010 23:42:03 14 C 6.39 g/m*3 14 C 0 km/h
360 01-05-2010 23:54:03 13.9 C 6.47 g/m*3 13.9 C 0 km/h
361 02-05-2010 00:06:03 13.8 C 6.55 g/m*3 13.8 C 0 km/h
362 02-05-2010 00:18:03 13.3 C 6.93 g/m*3 13.3 C 0 km/h
363 02-05-2010 00:30:03 12.6 C 7.3 g/m*3 12.6 C 0 km/h
364 02-05-2010 00:42:03 12.6 C 7.41 g/m*3 12.6 C 0 km/h
365 02-05-2010 00:54:03 12.5 C 7.26 g/m*3 12.5 C 0 km/h
366 02-05-2010 01:06:03 12.5 C 7.26 g/m*3 12.5 C 0 km/h
367 02-05-2010 01:18:03 12.6 C 7.3 g/m*3 12.6 C 0 km/h
368 02-05-2010 01:30:03 12.6 C 7.19 g/m*3 12.6 C 0 km/h
369 02-05-2010 01:42:03 12.5 C 7.26 g/m*3 12.5 C 0 km/h
370 02-05-2010 01:54:03 12.5 C 7.26 g/m*3 12.5 C 0 km/h
371 02-05-2010 02:06:03 12.5 C 7.26 g/m*3 12.5 C 0 km/h
372 02-05-2010 02:18:03 12.4 C 7.21 g/m*3 12.4 C 0 km/h
373 02-05-2010 02:30:03 12.3 C 7.28 g/m*3 12.3 C 0 km/h
374 02-05-2010 02:42:03 12.2 C 7.23 g/m*3 12.2 C 0 km/h
375 02-05-2010 02:54:03 12.1 C 7.29 g/m*3 12.1 C 0 km/h
Sensor: Nr:Datum:Temp:Abs-Feuchte:Windchill:Wind:
Aussen-T/F 376 02-05-2010 03:06:03 12 C 7.25 g/m*3 12 C 0 km/h
377 02-05-2010 03:18:03 12 C 7.14 g/m*3 12 C 0 km/h
378 02-05-2010 03:30:04 11.9 C 7.31 g/m*3 11.9 C 0 km/h
379 02-05-2010 03:42:04 11.7 C 7.32 g/m*3 11.7 C 0 km/h
380 02-05-2010 03:54:04 11.6 C 7.17 g/m*3 11.6 C 0 km/h
381 02-05-2010 04:06:04 11.6 C 7.17 g/m*3 11.6 C 0 km/h
382 02-05-2010 04:18:04 11.6 C 7.17 g/m*3 11.6 C 0 km/h
383 02-05-2010 04:30:04 11.6 C 7.28 g/m*3 11.6 C 0 km/h
384 02-05-2010 04:42:04 11.7 C 7.43 g/m*3 11.7 C 0 km/h
385 02-05-2010 04:54:04 11.3 C 7.24 g/m*3 11.3 C 0 km/h
386 02-05-2010 05:06:04 11.1 C 7.05 g/m*3 11.1 C 0 km/h
387 02-05-2010 05:18:04 11.1 C 7.05 g/m*3 11.1 C 0 km/h
388 02-05-2010 05:30:04 11.1 C 7.15 g/m*3 11.1 C 0 km/h
389 02-05-2010 05:42:04 11 C 7.11 g/m*3 11 C 0 km/h
390 02-05-2010 05:54:04 11 C 7.11 g/m*3 11 C 0 km/h
391 02-05-2010 06:06:04 10.9 C 7.16 g/m*3 10.9 C 0 km/h
392 02-05-2010 06:18:04 11 C 7.11 g/m*3 11 C 0 km/h
393 02-05-2010 06:30:04 11 C 7.31 g/m*3 11 C 0 km/h
394 02-05-2010 06:42:04 10.9 C 7.26 g/m*3 10.9 C 0 km/h
395 02-05-2010 06:54:04 10.9 C 7.26 g/m*3 10.9 C 0 km/h
396 02-05-2010 07:06:04 11 C 7.21 g/m*3 11 C 0 km/h
397 02-05-2010 07:18:04 11.2 C 7.4 g/m*3 11.2 C 0 km/h
398 02-05-2010 07:30:04 11.4 C 7.49 g/m*3 11.4 C 0 km/h
399 02-05-2010 07:42:04 11.4 C 7.49 g/m*3 11.4 C 0 km/h
400 02-05-2010 07:54:02 11.4 C 7.49 g/m*3 11.4 C 0 km/h
Sensor: Nr:Datum:Temp:Abs-Feuchte:Windchill:Wind:
Aussen-T/F 401 02-05-2010 08:06:02 11.4 C 7.6 g/m*3 11.4 C 0 km/h
402 02-05-2010 08:18:02 11.6 C 7.8 g/m*3 11.6 C 0 km/h
403 02-05-2010 08:30:02 11.2 C 7.7 g/m*3 11.2 C 0 km/h
404 02-05-2010 08:42:02 11.2 C 7.8 g/m*3 11.2 C 0 km/h
405 02-05-2010 08:54:01 11.5 C 8.06 g/m*3 11.5 C 0 km/h
406 02-05-2010 09:06:02 11.8 C 8.21 g/m*3 11.8 C 0 km/h
407 02-05-2010 09:18:01 11.8 C 8 g/m*3 11.8 C 0 km/h
408 02-05-2010 09:30:01 12.1 C 8.04 g/m*3 12.1 C 0 km/h
409 02-05-2010 09:42:02 12.4 C 8.09 g/m*3 12.4 C 0 km/h
410 02-05-2010 09:54:01 12.9 C 8.11 g/m*3 12.9 C 0 km/h
411 02-05-2010 10:06:02 13.1 C 8.1 g/m*3 13.1 C 0 km/h
412 02-05-2010 10:18:01 13.5 C 8.07 g/m*3 13.5 C 0 km/h
413 02-05-2010 10:30:01 14.1 C 8.01 g/m*3 14.1 C 0 km/h
414 02-05-2010 10:42:02 14.9 C 8.03 g/m*3 14.9 C 0 km/h
415 02-05-2010 10:54:01 15.5 C 7.8 g/m*3 15.5 C 0 km/h
416 02-05-2010 11:06:02 16.2 C 7.58 g/m*3 16.2 C 0 km/h
417 02-05-2010 11:18:02 16.7 C 7.82 g/m*3 16.7 C 0 km/h
418 02-05-2010 11:30:02 17.4 C 7.26 g/m*3 17.4 C 0 km/h
419 02-05-2010 11:42:01 18.1 C 7.11 g/m*3 18.1 C 0 km/h
420 02-05-2010 11:54:02 17.9 C 7.02 g/m*3 17.9 C 0 km/h
421 02-05-2010 12:06:01 16.4 C 6.42 g/m*3 16.4 C 0 km/h
422 02-05-2010 12:18:02 13.5 C 7.37 g/m*3 13.5 C 0 km/h
423 02-05-2010 12:30:02 12.5 C 7.92 g/m*3 12.5 C 0 km/h
424 02-05-2010 12:42:01 11.4 C 7.7 g/m*3 11.4 C 0 km/h
425 02-05-2010 12:54:02 10.7 C 8.05 g/m*3 10.7 C 0 km/h
Sensor: Nr:Datum:Temp:Abs-Feuchte:Windchill:Wind:
Aussen-T/F 426 02-05-2010 13:06:02 10.8 C 8.3 g/m*3 10.8 C 0 km/h
427 02-05-2010 13:18:02 11.8 C 8.95 g/m*3 11.8 C 0 km/h
428 02-05-2010 13:30:02 11.6 C 8.63 g/m*3 11.6 C 0 km/h
429 02-05-2010 13:42:03 12.2 C 8.85 g/m*3 12.2 C 0 km/h
430 02-05-2010 13:54:02 13.1 C 8.9 g/m*3 13.1 C 0 km/h
431 02-05-2010 14:06:02 13.9 C 8.99 g/m*3 13.9 C 0 km/h
432 02-05-2010 14:18:02 14.5 C 8.95 g/m*3 14.5 C 0 km/h
433 02-05-2010 14:30:02 15.2 C 9.09 g/m*3 15.2 C 0 km/h
434 02-05-2010 14:42:02 15.3 C 8.88 g/m*3 15.3 C 0 km/h
435 02-05-2010 14:54:02 15.4 C 8.54 g/m*3 15.4 C 0 km/h
436 02-05-2010 15:06:02 14.9 C 8.03 g/m*3 14.9 C 0 km/h
437 02-05-2010 15:18:02 15.9 C 8.13 g/m*3 15.9 C 0 km/h
438 02-05-2010 15:30:02 17.7 C 7.39 g/m*3 17.7 C 0 km/h
439 02-05-2010 15:42:02 18.7 C 6.56 g/m*3 18.7 C 0 km/h
440 02-05-2010 15:54:02 18.6 C 6.05 g/m*3 18.6 C 0 km/h
441 02-05-2010 16:06:02 19.4 C 6.17 g/m*3 19.4 C 0 km/h
442 02-05-2010 16:18:02 18.8 C 5.96 g/m*3 18.8 C 0 km/h
443 02-05-2010 16:30:02 18 C 6.6 g/m*3 18 C 0 km/h
444 02-05-2010 16:42:02 17.3 C 7.37 g/m*3 17.3 C 0 km/h
445 02-05-2010 16:54:01 13.5 C 7.25 g/m*3 13.5 C 0 km/h
446 02-05-2010 17:06:02 12.3 C 8.25 g/m*3 12.3 C 0 km/h
447 02-05-2010 17:18:01 13.4 C 9.18 g/m*3 13.4 C 0 km/h
448 02-05-2010 17:30:01 15.2 C 8.83 g/m*3 15.2 C 0 km/h
449 02-05-2010 17:42:01 16.5 C 8.28 g/m*3 16.5 C 0 km/h
450 02-05-2010 17:54:01 17.2 C 8.05 g/m*3 17.2 C 0 km/h
Sensor: Nr:Datum:Temp:Abs-Feuchte:Windchill:Wind:
Aussen-T/F 451 02-05-2010 18:06:01 18.5 C 7.59 g/m*3 18.5 C 0 km/h
452 02-05-2010 18:18:02 18 C 6.91 g/m*3 18 C 0 km/h
453 02-05-2010 18:30:02 16.7 C 6.68 g/m*3 16.7 C 0 km/h
454 02-05-2010 18:42:01 16.3 C 6.94 g/m*3 16.3 C 0 km/h
455 02-05-2010 18:54:03 16.4 C 7.12 g/m*3 16.4 C 0 km/h
456 02-05-2010 19:06:02 17.5 C 6.71 g/m*3 17.5 C 0 km/h
457 02-05-2010 19:18:02 16.9 C 6.9 g/m*3 16.9 C 0 km/h
458 02-05-2010 19:30:02 18 C 6.91 g/m*3 18 C 0 km/h
459 02-05-2010 19:42:02 17.6 C 6.75 g/m*3 17.6 C 0 km/h
460 02-05-2010 19:54:02 17.3 C 6.48 g/m*3 17.3 C 0 km/h
461 02-05-2010 20:06:02 17.3 C 6.92 g/m*3 17.3 C 0 km/h
462 02-05-2010 20:18:02 17 C 7.23 g/m*3 17 C 0 km/h
463 02-05-2010 20:30:02 16.2 C 7.31 g/m*3 16.2 C 0 km/h
464 02-05-2010 20:42:02 15.1 C 7.35 g/m*3 15.1 C 0 km/h
465 02-05-2010 20:54:02 14.1 C 7.4 g/m*3 14.1 C 0 km/h
466 02-05-2010 21:06:02 13.4 C 7.56 g/m*3 13.4 C 0 km/h
467 02-05-2010 21:18:02 12.8 C 7.62 g/m*3 12.8 C 0 km/h
468 02-05-2010 21:30:03 12.5 C 7.7 g/m*3 12.5 C 0 km/h
469 02-05-2010 21:42:01 12.3 C 7.82 g/m*3 12.3 C 0 km/h
470 02-05-2010 21:54:03 12.1 C 7.72 g/m*3 12.1 C 0 km/h
471 02-05-2010 22:06:03 11.8 C 7.79 g/m*3 11.8 C 0 km/h
472 02-05-2010 22:19:04 11.6 C 7.8 g/m*3 11.6 C 0 km/h
473 02-05-2010 22:31:04 11.3 C 7.65 g/m*3 11.3 C 0 km/h
474 02-05-2010 22:43:04 11.2 C 7.7 g/m*3 11.2 C 0 km/h
475 02-05-2010 22:55:04 11 C 7.61 g/m*3 11 C 0 km/h
Sensor: Nr:Datum:Temp:Abs-Feuchte:Windchill:Wind:
Aussen-T/F 476 02-05-2010 23:07:04 10.8 C 7.61 g/m*3 10.8 C 0 km/h
477 02-05-2010 23:19:04 10.6 C 7.52 g/m*3 10.6 C 0 km/h
478 02-05-2010 23:31:04 10.2 C 7.33 g/m*3 10.2 C 0 km/h
479 02-05-2010 23:43:04 10.2 C 7.42 g/m*3 10.2 C 0 km/h
480 02-05-2010 23:55:04 10.2 C 7.42 g/m*3 10.2 C 0 km/h
481 03-05-2010 00:07:04 10.1 C 7.28 g/m*3 10.1 C 0 km/h
482 03-05-2010 00:19:04 10 C 7.33 g/m*3 10 C 0 km/h
483 03-05-2010 00:31:04 9.9 C 7.38 g/m*3 9.9 C 0 km/h
484 03-05-2010 00:43:04 9.5 C 7.19 g/m*3 9.5 C 0 km/h
485 03-05-2010 00:55:04 9.3 C 7.19 g/m*3 9.3 C 0 km/h
486 03-05-2010 01:07:04 9.2 C 7.14 g/m*3 9.2 C 0 km/h
487 03-05-2010 01:19:04 9.1 C 7.1 g/m*3 9.1 C 0 km/h
488 03-05-2010 01:31:04 9.1 C 7.1 g/m*3 9.1 C 0 km/h
489 03-05-2010 01:43:04 8.7 C 7.09 g/m*3 8.7 C 0 km/h
490 03-05-2010 01:55:04 8.7 C 7.09 g/m*3 8.7 C 0 km/h
491 03-05-2010 02:07:04 8.5 C 7 g/m*3 8.5 C 0 km/h
492 03-05-2010 02:19:05 8.1 C 6.82 g/m*3 8.1 C 0 km/h
493 03-05-2010 02:31:05 8 C 6.78 g/m*3 8 C 0 km/h
494 03-05-2010 02:43:05 8 C 6.78 g/m*3 8 C 0 km/h
495 03-05-2010 02:55:05 8 C 6.78 g/m*3 8 C 0 km/h
496 03-05-2010 03:07:05 8.2 C 7.03 g/m*3 8.2 C 0 km/h
497 03-05-2010 03:19:05 8.2 C 7.03 g/m*3 8.2 C 0 km/h
498 03-05-2010 03:31:05 8 C 6.94 g/m*3 8 C 0 km/h
499 03-05-2010 03:43:05 8 C 7.03 g/m*3 8 C 0 km/h
500 03-05-2010 03:55:05 8.1 C 7.07 g/m*3 8.1 C 0 km/h
Sensor: Nr:Datum:Temp:Abs-Feuchte:Windchill:Wind:
Aussen-T/F 501 03-05-2010 04:07:05 8.2 C 7.12 g/m*3 8.2 C 0 km/h
502 03-05-2010 04:19:05 8.3 C 7.16 g/m*3 8.3 C 0 km/h
503 03-05-2010 04:31:05 8.4 C 7.21 g/m*3 8.4 C 0 km/h
504 03-05-2010 04:43:05 8.6 C 7.22 g/m*3 8.6 C 0 km/h
505 03-05-2010 04:55:05 8.6 C 7.22 g/m*3 8.6 C 0 km/h
506 03-05-2010 05:07:05 8.6 C 7.13 g/m*3 8.6 C 0 km/h
507 03-05-2010 05:19:05 8.6 C 7.13 g/m*3 8.6 C 0 km/h
508 03-05-2010 05:31:05 8.6 C 7.13 g/m*3 8.6 C 0 km/h
509 03-05-2010 05:43:05 8.7 C 7.18 g/m*3 8.7 C 0 km/h
510 03-05-2010 05:55:05 8.5 C 7.09 g/m*3 8.5 C 0 km/h
511 03-05-2010 06:07:05 8.6 C 7.13 g/m*3 8.6 C 0 km/h
512 03-05-2010 06:19:05 8.7 C 7.18 g/m*3 8.7 C 0 km/h
513 03-05-2010 06:31:05 8.6 C 7.13 g/m*3 8.6 C 0 km/h
514 03-05-2010 06:43:05 8.6 C 7.13 g/m*3 8.6 C 0 km/h
515 03-05-2010 06:55:02 8.5 C 7.09 g/m*3 8.5 C 0 km/h
516 03-05-2010 07:07:03 8.2 C 6.95 g/m*3 8.2 C 0 km/h
517 03-05-2010 07:19:02 8.3 C 7 g/m*3 8.3 C 0 km/h
518 03-05-2010 07:31:02 8.2 C 7.03 g/m*3 8.2 C 0 km/h
519 03-05-2010 07:43:02 8.5 C 7.17 g/m*3 8.5 C 0 km/h
520 03-05-2010 07:55:01 8.8 C 7.4 g/m*3 8.8 C 0 km/h
521 03-05-2010 08:07:02 9.1 C 7.28 g/m*3 9.1 C 0 km/h
522 03-05-2010 08:19:02 9.6 C 7.24 g/m*3 9.6 C 0 km/h
523 03-05-2010 08:31:02 10 C 6.86 g/m*3 10 C 0 km/h
524 03-05-2010 08:43:02 9.9 C 6.72 g/m*3 9.9 C 0 km/h
525 03-05-2010 08:55:02 10 C 6.67 g/m*3 10 C 0 km/h
Sensor: Nr:Datum:Temp:Abs-Feuchte:Windchill:Wind:
Aussen-T/F 526 03-05-2010 09:07:02 10.1 C 6.62 g/m*3 10.1 C 0 km/h
527 03-05-2010 09:19:02 10.6 C 6.83 g/m*3 10.6 C 0 km/h
528 03-05-2010 09:31:02 10.5 C 6.69 g/m*3 10.5 C 0 km/h
529 03-05-2010 09:43:02 10.8 C 6.82 g/m*3 10.8 C 0 km/h
530 03-05-2010 09:55:01 10.8 C 6.72 g/m*3 10.8 C 0 km/h
531 03-05-2010 10:07:02 10.8 C 6.72 g/m*3 10.8 C 0 km/h
532 03-05-2010 10:19:01 11 C 6.71 g/m*3 11 C 0 km/h
533 03-05-2010 10:31:01 10.9 C 6.76 g/m*3 10.9 C 0 km/h
534 03-05-2010 10:43:01 10.8 C 6.72 g/m*3 10.8 C 0 km/h
535 03-05-2010 10:55:01 11.5 C 6.92 g/m*3 11.5 C 0 km/h
536 03-05-2010 11:07:02 12.1 C 6.65 g/m*3 12.1 C 0 km/h
537 03-05-2010 11:19:01 11.9 C 6.67 g/m*3 11.9 C 0 km/h
538 03-05-2010 11:31:01 12.1 C 6.65 g/m*3 12.1 C 0 km/h
539 03-05-2010 11:43:01 14.1 C 6.8 g/m*3 14.1 C 0 km/h
540 03-05-2010 11:55:01 14.5 C 6.72 g/m*3 14.5 C 0 km/h
541 03-05-2010 12:07:01 14.7 C 6.55 g/m*3 14.7 C 0 km/h
542 03-05-2010 12:19:02 15.7 C 6.42 g/m*3 15.7 C 0 km/h
543 03-05-2010 12:31:01 15.2 C 6.23 g/m*3 15.2 C 0 km/h
544 03-05-2010 12:43:01 14.5 C 6.09 g/m*3 14.5 C 0 km/h
545 03-05-2010 12:55:02 13.6 C 6.94 g/m*3 13.6 C 0 km/h
546 03-05-2010 13:07:01 14.2 C 6.84 g/m*3 14.2 C 0 km/h
547 03-05-2010 13:19:01 14.9 C 6.88 g/m*3 14.9 C 0 km/h
548 03-05-2010 13:31:01 15.7 C 6.42 g/m*3 15.7 C 0 km/h
549 03-05-2010 13:43:01 16.7 C 6.25 g/m*3 16.7 C 0 km/h
550 03-05-2010 13:55:02 11.3 C 5.71 g/m*3 11.3 C 0 km/h
Sensor: Nr:Datum:Temp:Abs-Feuchte:Windchill:Wind:
Aussen-T/F 551 03-05-2010 14:07:02 11.2 C 6.28 g/m*3 11.2 C 0 km/h
552 03-05-2010 14:19:02 10.1 C 6.43 g/m*3 10.1 C 0 km/h
553 03-05-2010 14:31:01 9.1 C 6.83 g/m*3 9.1 C 0 km/h
554 03-05-2010 14:43:01 9 C 7.23 g/m*3 9 C 0 km/h
555 03-05-2010 14:55:02 8.4 C 7.13 g/m*3 8.4 C 0 km/h
556 03-05-2010 15:07:01 8.8 C 7.49 g/m*3 8.8 C 0 km/h
557 03-05-2010 15:19:02 9 C 7.67 g/m*3 9 C 0 km/h
558 03-05-2010 15:31:02 9.6 C 8.06 g/m*3 9.6 C 0 km/h
559 03-05-2010 15:43:02 10.2 C 8.18 g/m*3 10.2 C 0 km/h
560 03-05-2010 15:55:02 11.1 C 8.56 g/m*3 11.1 C 0 km/h
561 03-05-2010 16:07:02 11.1 C 7.86 g/m*3 11.1 C 0 km/h
562 03-05-2010 16:19:02 11 C 7.51 g/m*3 11 C 0 km/h
563 03-05-2010 16:31:02 10.2 C 7.23 g/m*3 10.2 C 0 km/h
564 03-05-2010 16:43:02 10.1 C 7.28 g/m*3 10.1 C 0 km/h
565 03-05-2010 16:55:01 10.5 C 7.37 g/m*3 10.5 C 0 km/h
566 03-05-2010 17:07:02 10.1 C 6.9 g/m*3 10.1 C 0 km/h
567 03-05-2010 17:19:01 10.4 C 7.42 g/m*3 10.4 C 0 km/h
568 03-05-2010 17:31:02 10.7 C 7.46 g/m*3 10.7 C 0 km/h
569 03-05-2010 17:43:03 11.4 C 7.49 g/m*3 11.4 C 0 km/h
570 03-05-2010 17:55:02 11.5 C 7.02 g/m*3 11.5 C 0 km/h
571 03-05-2010 18:07:02 11.3 C 7.14 g/m*3 11.3 C 0 km/h
572 03-05-2010 18:19:01 10.7 C 6.58 g/m*3 10.7 C 0 km/h
573 03-05-2010 18:31:02 10.9 C 6.96 g/m*3 10.9 C 0 km/h
574 03-05-2010 18:43:02 11 C 7.01 g/m*3 11 C 0 km/h
575 03-05-2010 18:55:02 10.9 C 6.66 g/m*3 10.9 C 0 km/h
Sensor: Nr:Datum:Temp:Abs-Feuchte:Windchill:Wind:
Aussen-T/F 576 03-05-2010 19:07:02 10.8 C 6.62 g/m*3 10.8 C 0 km/h
577 03-05-2010 19:19:01 10.7 C 6.58 g/m*3 10.7 C 0 km/h
578 03-05-2010 19:31:02 10.4 C 6.65 g/m*3 10.4 C 0 km/h
579 03-05-2010 19:43:02 10.3 C 6.42 g/m*3 10.3 C 0 km/h
580 03-05-2010 19:55:02 10.3 C 6.42 g/m*3 10.3 C 0 km/h
581 03-05-2010 20:07:02 10.1 C 6.15 g/m*3 10.1 C 0 km/h
582 03-05-2010 20:19:02 10 C 6.01 g/m*3 10 C 0 km/h
583 03-05-2010 20:31:02 9.8 C 6.12 g/m*3 9.8 C 0 km/h
584 03-05-2010 20:43:02 9.5 C 5.92 g/m*3 9.5 C 0 km/h
585 03-05-2010 20:55:01 9.3 C 6.11 g/m*3 9.3 C 0 km/h
586 03-05-2010 21:07:02 9.2 C 6.07 g/m*3 9.2 C 0 km/h
587 03-05-2010 21:19:02 9.2 C 6.25 g/m*3 9.2 C 0 km/h
588 03-05-2010 21:31:02 9.2 C 6.25 g/m*3 9.2 C 0 km/h
589 03-05-2010 21:43:02 8.9 C 6.39 g/m*3 8.9 C 0 km/h
590 03-05-2010 21:55:02 8.9 C 6.31 g/m*3 8.9 C 0 km/h
591 03-05-2010 22:07:02 8.8 C 6.44 g/m*3 8.8 C 0 km/h
592 03-05-2010 22:20:05 8.7 C 6.49 g/m*3 8.7 C 0 km/h
593 03-05-2010 22:32:05 8.5 C 6.49 g/m*3 8.5 C 0 km/h
594 03-05-2010 22:44:05 8.5 C 6.57 g/m*3 8.5 C 0 km/h
595 03-05-2010 22:56:05 8.4 C 6.45 g/m*3 8.4 C 0 km/h
596 03-05-2010 23:08:05 8.4 C 6.45 g/m*3 8.4 C 0 km/h
597 03-05-2010 23:20:05 8.4 C 6.53 g/m*3 8.4 C 0 km/h
598 03-05-2010 23:32:05 8.4 C 6.53 g/m*3 8.4 C 0 km/h
599 03-05-2010 23:44:05 8.3 C 6.49 g/m*3 8.3 C 0 km/h
600 03-05-2010 23:56:05 8.3 C 6.49 g/m*3 8.3 C 0 km/h
Sensor: Nr:Datum:Temp:Abs-Feuchte:Windchill:Wind:
Aussen-T/F 601 04-05-2010 00:08:05 8 C 6.37 g/m*3 8 C 0 km/h
602 04-05-2010 00:20:05 7.5 C 6.24 g/m*3 7.5 C 0 km/h
603 04-05-2010 00:32:05 7.2 C 6.28 g/m*3 7.2 C 0 km/h
604 04-05-2010 00:44:05 7.4 C 6.44 g/m*3 7.4 C 0 km/h
605 04-05-2010 00:56:05 7.8 C 6.69 g/m*3 7.8 C 0 km/h
606 04-05-2010 01:08:05 8 C 6.53 g/m*3 8 C 0 km/h
607 04-05-2010 01:20:06 8.1 C 6.49 g/m*3 8.1 C 0 km/h
608 04-05-2010 01:32:06 8.2 C 6.45 g/m*3 8.2 C 0 km/h
609 04-05-2010 01:44:06 8.3 C 6.49 g/m*3 8.3 C 0 km/h
610 04-05-2010 01:56:06 8.4 C 6.53 g/m*3 8.4 C 0 km/h
611 04-05-2010 02:08:06 8.4 C 6.53 g/m*3 8.4 C 0 km/h
612 04-05-2010 02:20:06 8.4 C 6.53 g/m*3 8.4 C 0 km/h
613 04-05-2010 02:32:06 8.4 C 6.53 g/m*3 8.4 C 0 km/h
614 04-05-2010 02:44:06 8.3 C 6.49 g/m*3 8.3 C 0 km/h
615 04-05-2010 02:56:06 8.4 C 6.62 g/m*3 8.4 C 0 km/h
616 04-05-2010 03:08:06 8.4 C 6.62 g/m*3 8.4 C 0 km/h
617 04-05-2010 03:20:06 8.4 C 6.62 g/m*3 8.4 C 0 km/h
618 04-05-2010 03:32:06 8.3 C 6.57 g/m*3 8.3 C 0 km/h
619 04-05-2010 03:44:06 8.2 C 6.62 g/m*3 8.2 C 0 km/h
620 04-05-2010 03:56:06 8.1 C 6.66 g/m*3 8.1 C 0 km/h
621 04-05-2010 04:08:06 8 C 6.61 g/m*3 8 C 0 km/h
622 04-05-2010 04:20:06 7.9 C 6.74 g/m*3 7.9 C 0 km/h
623 04-05-2010 04:32:06 7.9 C 6.82 g/m*3 7.9 C 0 km/h
624 04-05-2010 04:44:06 7.9 C 6.82 g/m*3 7.9 C 0 km/h
625 04-05-2010 04:56:06 7.9 C 6.82 g/m*3 7.9 C 0 km/h
Sensor: Nr:Datum:Temp:Abs-Feuchte:Windchill:Wind:
Aussen-T/F 626 04-05-2010 05:08:06 8 C 6.78 g/m*3 8 C 0 km/h
627 04-05-2010 05:20:06 8.1 C 6.82 g/m*3 8.1 C 0 km/h
628 04-05-2010 05:32:07 8.2 C 6.87 g/m*3 8.2 C 0 km/h
629 04-05-2010 05:44:07 8.2 C 6.87 g/m*3 8.2 C 0 km/h
630 04-05-2010 05:56:07 8.2 C 6.87 g/m*3 8.2 C 0 km/h
631 04-05-2010 06:08:07 8.1 C 6.82 g/m*3 8.1 C 0 km/h
632 04-05-2010 06:20:07 8.2 C 6.87 g/m*3 8.2 C 0 km/h
633 04-05-2010 06:32:07 8.2 C 6.87 g/m*3 8.2 C 0 km/h
634 04-05-2010 06:44:07 8.3 C 6.91 g/m*3 8.3 C 0 km/h
635 04-05-2010 06:56:02 8.4 C 6.96 g/m*3 8.4 C 0 km/h
636 04-05-2010 07:08:01 8.5 C 7 g/m*3 8.5 C 0 km/h
637 04-05-2010 07:20:02 8.6 C 6.96 g/m*3 8.6 C 0 km/h
638 04-05-2010 07:32:01 8.7 C 7.01 g/m*3 8.7 C 0 km/h
639 04-05-2010 07:44:01 8.7 C 6.92 g/m*3 8.7 C 0 km/h
640 04-05-2010 07:56:02 8.8 C 6.79 g/m*3 8.8 C 0 km/h
641 04-05-2010 08:08:01 9.2 C 6.61 g/m*3 9.2 C 0 km/h
642 04-05-2010 08:20:01 9 C 6.44 g/m*3 9 C 0 km/h
643 04-05-2010 08:32:02 9.1 C 6.48 g/m*3 9.1 C 0 km/h
644 04-05-2010 08:44:03 8.9 C 6.31 g/m*3 8.9 C 0 km/h
645 04-05-2010 08:56:02 8.9 C 6.31 g/m*3 8.9 C 0 km/h
646 04-05-2010 09:08:02 9.2 C 6.34 g/m*3 9.2 C 0 km/h
647 04-05-2010 09:20:01 9.1 C 6.21 g/m*3 9.1 C 0 km/h
648 04-05-2010 09:32:02 9.3 C 6.29 g/m*3 9.3 C 0 km/h
649 04-05-2010 09:44:02 9.3 C 6.2 g/m*3 9.3 C 0 km/h
650 04-05-2010 09:56:02 9.5 C 6.19 g/m*3 9.5 C 0 km/h
Sensor: Nr:Datum:Temp:Abs-Feuchte:Windchill:Wind:
Aussen-T/F 651 04-05-2010 10:08:02 9.6 C 6.14 g/m*3 9.6 C 0 km/h
652 04-05-2010 10:20:01 9.8 C 5.85 g/m*3 9.8 C 0 km/h
653 04-05-2010 10:32:02 9.8 C 5.85 g/m*3 9.8 C 0 km/h
654 04-05-2010 10:44:02 9.9 C 5.7 g/m*3 9.9 C 0 km/h
655 04-05-2010 10:56:01 10 C 5.54 g/m*3 10 C 0 km/h
656 04-05-2010 11:08:02 10.2 C 5.52 g/m*3 10.2 C 0 km/h
657 04-05-2010 11:20:02 10.5 C 5.24 g/m*3 10.5 C 0 km/h
658 04-05-2010 11:32:02 10.7 C 5.21 g/m*3 10.7 C 0 km/h
659 04-05-2010 11:44:02 11.1 C 5.04 g/m*3 11.1 C 0 km/h
660 04-05-2010 11:56:02 11.3 C 5 g/m*3 11.3 C 0 km/h
661 04-05-2010 12:08:02 10.8 C 4.94 g/m*3 10.8 C 0 km/h
662 04-05-2010 12:20:02 10.5 C 4.85 g/m*3 10.5 C 0 km/h
663 04-05-2010 12:32:01 10.6 C 4.78 g/m*3 10.6 C 0 km/h
664 04-05-2010 12:44:01 11.6 C 4.89 g/m*3 11.6 C 0 km/h
665 04-05-2010 12:56:02 12 C 4.69 g/m*3 12 C 0 km/h
666 04-05-2010 13:08:01 12.2 C 4.64 g/m*3 12.2 C 0 km/h
667 04-05-2010 13:20:02 11.7 C 4.71 g/m*3 11.7 C 0 km/h
668 04-05-2010 13:32:01 11.8 C 4.53 g/m*3 11.8 C 0 km/h
669 04-05-2010 13:44:01 12 C 4.48 g/m*3 12 C 0 km/h
670 04-05-2010 13:56:02 12.2 C 4.53 g/m*3 12.2 C 0 km/h
671 04-05-2010 14:08:02 12.1 C 4.5 g/m*3 12.1 C 0 km/h
672 04-05-2010 14:20:02 12.5 C 4.84 g/m*3 12.5 C 0 km/h
673 04-05-2010 14:32:02 13.1 C 4.56 g/m*3 13.1 C 0 km/h
674 04-05-2010 14:44:02 13.4 C 4.65 g/m*3 13.4 C 0 km/h
675 04-05-2010 14:56:02 13.5 C 4.44 g/m*3 13.5 C 0 km/h
Sensor: Nr:Datum:Temp:Abs-Feuchte:Windchill:Wind:
Aussen-T/F 676 04-05-2010 15:08:02 13.5 C 4.56 g/m*3 13.5 C 0 km/h
677 04-05-2010 15:20:02 13.8 C 4.41 g/m*3 13.8 C 0 km/h
678 04-05-2010 15:32:02 13.5 C 4.44 g/m*3 13.5 C 0 km/h
679 04-05-2010 15:44:02 13.5 C 4.56 g/m*3 13.5 C 0 km/h
680 04-05-2010 15:56:02 12.9 C 4.51 g/m*3 12.9 C 0 km/h
681 04-05-2010 16:08:02 12.5 C 4.51 g/m*3 12.5 C 0 km/h
682 04-05-2010 16:20:02 12.8 C 4.59 g/m*3 12.8 C 0 km/h
683 04-05-2010 16:32:02 12.5 C 4.4 g/m*3 12.5 C 0 km/h
684 04-05-2010 16:44:02 12.5 C 4.4 g/m*3 12.5 C 0 km/h
685 04-05-2010 16:56:01 12 C 4.26 g/m*3 12 C 0 km/h
686 04-05-2010 17:08:02 12 C 4.26 g/m*3 12 C 0 km/h
687 04-05-2010 17:20:01 11.4 C 4.31 g/m*3 11.4 C 0 km/h
688 04-05-2010 17:32:02 11.4 C 4.41 g/m*3 11.4 C 0 km/h
689 04-05-2010 17:44:02 11.5 C 4.34 g/m*3 11.5 C 0 km/h
690 04-05-2010 17:56:02 11.4 C 4.31 g/m*3 11.4 C 0 km/h
691 04-05-2010 18:08:02 11.5 C 4.23 g/m*3 11.5 C 0 km/h
692 04-05-2010 18:20:02 11.4 C 4.21 g/m*3 11.4 C 0 km/h
693 04-05-2010 18:32:02 11.2 C 4.16 g/m*3 11.2 C 0 km/h
694 04-05-2010 18:44:02 11.1 C 4.13 g/m*3 11.1 C 0 km/h
695 04-05-2010 18:56:02 11 C 4.3 g/m*3 11 C 0 km/h
696 04-05-2010 19:08:02 11 C 4.3 g/m*3 11 C 0 km/h
697 04-05-2010 19:20:02 12 C 4.16 g/m*3 12 C 0 km/h
698 04-05-2010 19:32:02 11.4 C 4 g/m*3 11.4 C 0 km/h
699 04-05-2010 19:44:02 11 C 4 g/m*3 11 C 0 km/h
700 04-05-2010 19:56:01 11 C 4.2 g/m*3 11 C 0 km/h
Sensor: Nr:Datum:Temp:Abs-Feuchte:Windchill:Wind:
Aussen-T/F 701 04-05-2010 20:08:02 10.7 C 4.22 g/m*3 10.7 C 0 km/h
702 04-05-2010 20:20:01 10.6 C 4.49 g/m*3 10.6 C 0 km/h
703 04-05-2010 20:32:01 10.1 C 4.35 g/m*3 10.1 C 0 km/h
704 04-05-2010 20:44:01 9.8 C 4.36 g/m*3 9.8 C 0 km/h
705 04-05-2010 20:56:01 9.4 C 4.34 g/m*3 9.4 C 0 km/h
706 04-05-2010 21:08:02 9.5 C 4.28 g/m*3 9.5 C 0 km/h
707 04-05-2010 21:20:01 9.6 C 4.31 g/m*3 9.6 C 0 km/h
708 04-05-2010 21:32:01 9.7 C 4.61 g/m*3 9.7 C 0 km/h
709 04-05-2010 21:44:01 9.5 C 4.64 g/m*3 9.5 C 0 km/h
710 04-05-2010 21:56:01 8.8 C 4.61 g/m*3 8.8 C 0 km/h
711 04-05-2010 22:09:04 8.2 C 4.35 g/m*3 8.2 C 0 km/h
712 04-05-2010 22:21:04 8.1 C 4.33 g/m*3 8.1 C 0 km/h
713 04-05-2010 22:33:05 7.8 C 4.24 g/m*3 7.8 C 0 km/h
714 04-05-2010 22:45:05 7.7 C 4.14 g/m*3 7.7 C 0 km/h
715 04-05-2010 22:57:05 7.5 C 4.16 g/m*3 7.5 C 0 km/h
716 04-05-2010 23:09:05 7.4 C 4.14 g/m*3 7.4 C 0 km/h
717 04-05-2010 23:21:05 7.4 C 4.14 g/m*3 7.4 C 0 km/h
718 04-05-2010 23:33:05 7.3 C 4.03 g/m*3 7.3 C 0 km/h
719 04-05-2010 23:45:05 7.3 C 4.03 g/m*3 7.3 C 0 km/h
720 04-05-2010 23:57:05 7 C 3.95 g/m*3 7 C 0 km/h
721 05-05-2010 00:09:05 6.8 C 4.05 g/m*3 6.8 C 0 km/h
722 05-05-2010 00:21:05 6.7 C 4.18 g/m*3 6.7 C 0 km/h
723 05-05-2010 00:33:05 6.3 C 4.22 g/m*3 6.3 C 0 km/h
724 05-05-2010 00:45:05 6 C 4.21 g/m*3 6 C 0 km/h
725 05-05-2010 00:57:05 5.8 C 4.37 g/m*3 5.8 C 0 km/h
Sensor: Nr:Datum:Temp:Abs-Feuchte:Windchill:Wind:
Aussen-T/F 726 05-05-2010 01:09:05 5.5 C 4.35 g/m*3 5.5 C 0 km/h
727 05-05-2010 01:21:05 5.3 C 4.44 g/m*3 5.3 C 0 km/h
728 05-05-2010 01:33:05 5.4 C 4.4 g/m*3 5.4 C 0 km/h
729 05-05-2010 01:45:05 5.6 C 4.31 g/m*3 5.6 C 0 km/h
730 05-05-2010 01:57:05 5.6 C 4.24 g/m*3 5.6 C 0 km/h
731 05-05-2010 02:09:05 5.7 C 4.13 g/m*3 5.7 C 0 km/h
732 05-05-2010 02:21:05 5.7 C 4.13 g/m*3 5.7 C 0 km/h
733 05-05-2010 02:33:05 5.6 C 4.17 g/m*3 5.6 C 0 km/h
734 05-05-2010 02:45:06 5.5 C 4.21 g/m*3 5.5 C 0 km/h
735 05-05-2010 02:57:06 5.2 C 4.2 g/m*3 5.2 C 0 km/h
736 05-05-2010 03:09:06 5.1 C 4.24 g/m*3 5.1 C 0 km/h
737 05-05-2010 03:21:06 4.8 C 4.22 g/m*3 4.8 C 0 km/h
738 05-05-2010 03:33:06 4.7 C 4.13 g/m*3 4.7 C 0 km/h
739 05-05-2010 03:45:06 4.6 C 4.1 g/m*3 4.6 C 0 km/h
740 05-05-2010 03:57:06 4.5 C 4.01 g/m*3 4.5 C 0 km/h
741 05-05-2010 04:09:06 4.3 C 3.96 g/m*3 4.3 C 0 km/h
742 05-05-2010 04:21:06 4 C 4.01 g/m*3 4 C 0 km/h
743 05-05-2010 04:33:06 3.8 C 4.08 g/m*3 3.8 C 0 km/h
744 05-05-2010 04:45:06 3.7 C 4.11 g/m*3 3.7 C 0 km/h
745 05-05-2010 04:57:06 3.7 C 4.05 g/m*3 3.7 C 0 km/h
746 05-05-2010 05:09:06 3.6 C 4.02 g/m*3 3.6 C 0 km/h
747 05-05-2010 05:21:06 3.6 C 3.96 g/m*3 3.6 C 0 km/h
748 05-05-2010 05:33:06 3.6 C 3.9 g/m*3 3.6 C 0 km/h
749 05-05-2010 05:45:06 3.4 C 3.79 g/m*3 3.4 C 0 km/h
750 05-05-2010 05:57:06 3.2 C 3.86 g/m*3 3.2 C 0 km/h
Sensor: Nr:Datum:Temp:Abs-Feuchte:Windchill:Wind:
Aussen-T/F 751 05-05-2010 06:09:06 3 C 3.86 g/m*3 3 C 0 km/h
752 05-05-2010 06:21:06 2.8 C 3.99 g/m*3 2.8 C 0 km/h
753 05-05-2010 06:33:03 2.6 C 3.99 g/m*3 2.6 C 0 km/h
754 05-05-2010 06:45:03 2.5 C 4.02 g/m*3 2.5 C 0 km/h
755 05-05-2010 06:57:03 2.5 C 4.08 g/m*3 2.5 C 0 km/h
756 05-05-2010 07:09:02 2.5 C 4.14 g/m*3 2.5 C 0 km/h
757 05-05-2010 07:21:03 2.7 C 4.25 g/m*3 2.7 C 0 km/h
758 05-05-2010 07:33:02 2.8 C 4.28 g/m*3 2.8 C 0 km/h
759 05-05-2010 07:45:02 3 C 4.28 g/m*3 3 C 0 km/h
760 05-05-2010 07:57:02 3.4 C 4.4 g/m*3 3.4 C 0 km/h
761 05-05-2010 08:09:02 3.8 C 4.45 g/m*3 3.8 C 0 km/h
762 05-05-2010 08:21:02 4.4 C 4.31 g/m*3 4.4 C 0 km/h
763 05-05-2010 08:33:02 4.6 C 4.17 g/m*3 4.6 C 0 km/h
764 05-05-2010 08:45:02 4.9 C 4.12 g/m*3 4.9 C 0 km/h
765 05-05-2010 08:57:02 5.3 C 4.02 g/m*3 5.3 C 0 km/h
766 05-05-2010 09:09:01 6 C 3.99 g/m*3 6 C 0 km/h
767 05-05-2010 09:21:02 6.6 C 3.85 g/m*3 6.6 C 0 km/h
768 05-05-2010 09:33:02 7.2 C 3.92 g/m*3 7.2 C 0 km/h
769 05-05-2010 09:45:02 7.5 C 3.76 g/m*3 7.5 C 0 km/h
770 05-05-2010 09:57:02 7.9 C 3.7 g/m*3 7.9 C 0 km/h
771 05-05-2010 10:09:02 8.1 C 3.58 g/m*3 8.1 C 0 km/h
772 05-05-2010 10:21:02 8.6 C 3.52 g/m*3 8.6 C 0 km/h
773 05-05-2010 10:33:02 9.5 C 3.37 g/m*3 9.5 C 0 km/h
774 05-05-2010 10:45:01 9.6 C 3.11 g/m*3 9.6 C 0 km/h
775 05-05-2010 10:57:01 10 C 2.91 g/m*3 10 C 0 km/h
Sensor: Nr:Datum:Temp:Abs-Feuchte:Windchill:Wind:
Aussen-T/F 776 05-05-2010 11:09:02 10.4 C 2.89 g/m*3 10.4 C 0 km/h
777 05-05-2010 11:21:01 10.7 C 2.75 g/m*3 10.7 C 0 km/h
778 05-05-2010 11:33:02 11.2 C 3.04 g/m*3 11.2 C 0 km/h
779 05-05-2010 11:45:02 11.9 C 2.65 g/m*3 11.9 C 0 km/h
780 05-05-2010 11:57:02 12.5 C 2.42 g/m*3 12.5 C 0 km/h
781 05-05-2010 12:09:02 12.7 C 2.23 g/m*3 12.7 C 0 km/h
782 05-05-2010 12:21:01 12.7 C 2.23 g/m*3 12.7 C 0 km/h
783 05-05-2010 12:33:02 13.4 C 2.32 g/m*3 13.4 C 0 km/h
784 05-05-2010 12:45:02 14.6 C 2.5 g/m*3 14.6 C 0 km/h
785 05-05-2010 12:57:02 15.2 C 2.6 g/m*3 15.2 C 0 km/h
786 05-05-2010 13:09:02 15.9 C 2.71 g/m*3 15.9 C 0 km/h
787 05-05-2010 13:21:01 16.6 C 2.83 g/m*3 16.6 C 0 km/h
788 05-05-2010 13:33:02 17.2 C 2.93 g/m*3 17.2 C 0 km/h
789 05-05-2010 13:45:01 16.6 C 2.83 g/m*3 16.6 C 0 km/h
790 05-05-2010 13:57:01 16.4 C 2.79 g/m*3 16.4 C 0 km/h
791 05-05-2010 14:09:02 16.7 C 2.84 g/m*3 16.7 C 0 km/h
792 05-05-2010 14:21:02 16.7 C 2.84 g/m*3 16.7 C 0 km/h
793 05-05-2010 14:33:01 17 C 2.89 g/m*3 17 C 0 km/h
794 05-05-2010 14:45:01 17.4 C 2.96 g/m*3 17.4 C 0 km/h
795 05-05-2010 14:57:01 17.5 C 2.98 g/m*3 17.5 C 0 km/h
796 05-05-2010 15:09:02 18.3 C 3.13 g/m*3 18.3 C 0 km/h
797 05-05-2010 15:21:02 18.2 C 3.11 g/m*3 18.2 C 0 km/h
798 05-05-2010 15:33:01 17.8 C 3.04 g/m*3 17.8 C 0 km/h
799 05-05-2010 15:45:02 18 C 3.07 g/m*3 18 C 0 km/h
800 05-05-2010 15:57:02 18.2 C 3.11 g/m*3 18.2 C 0 km/h
Sensor: Nr:Datum:Temp:Abs-Feuchte:Windchill:Wind:
Aussen-T/F 801 05-05-2010 16:09:01 18.3 C 3.13 g/m*3 18.3 C 0 km/h
802 05-05-2010 16:21:01 18.1 C 3.09 g/m*3 18.1 C 0 km/h
803 05-05-2010 16:33:01 17.7 C 3.02 g/m*3 17.7 C 0 km/h
804 05-05-2010 16:45:02 17.5 C 2.98 g/m*3 17.5 C 0 km/h
805 05-05-2010 16:57:02 17.2 C 2.93 g/m*3 17.2 C 0 km/h
806 05-05-2010 17:09:02 16.7 C 2.84 g/m*3 16.7 C 0 km/h
807 05-05-2010 17:21:02 16.2 C 2.76 g/m*3 16.2 C 0 km/h
808 05-05-2010 17:33:02 15.6 C 2.66 g/m*3 15.6 C 0 km/h
809 05-05-2010 17:45:02 15.1 C 2.58 g/m*3 15.1 C 0 km/h
810 05-05-2010 17:57:02 14.8 C 2.53 g/m*3 14.8 C 0 km/h
811 05-05-2010 18:09:01 14.5 C 2.49 g/m*3 14.5 C 0 km/h
812 05-05-2010 18:21:01 14.4 C 2.47 g/m*3 14.4 C 0 km/h
813 05-05-2010 18:33:02 14.2 C 2.44 g/m*3 14.2 C 0 km/h
814 05-05-2010 18:45:02 14.1 C 2.43 g/m*3 14.1 C 0 km/h
815 05-05-2010 18:57:02 13.8 C 2.38 g/m*3 13.8 C 0 km/h
816 05-05-2010 19:09:02 13.7 C 2.37 g/m*3 13.7 C 0 km/h
817 05-05-2010 19:21:01 13.6 C 2.35 g/m*3 13.6 C 0 km/h
818 05-05-2010 19:33:02 13.5 C 2.34 g/m*3 13.5 C 0 km/h
819 05-05-2010 19:45:02 13.3 C 2.43 g/m*3 13.3 C 0 km/h
820 05-05-2010 19:57:02 13.1 C 2.28 g/m*3 13.1 C 0 km/h
821 05-05-2010 20:09:02 13 C 2.49 g/m*3 13 C 0 km/h
822 05-05-2010 20:21:02 12.9 C 2.82 g/m*3 12.9 C 0 km/h
823 05-05-2010 20:33:02 12.8 C 2.91 g/m*3 12.8 C 0 km/h
824 05-05-2010 20:45:02 12.7 C 2.89 g/m*3 12.7 C 0 km/h
825 05-05-2010 20:57:02 12.6 C 2.88 g/m*3 12.6 C 0 km/h
Sensor: Nr:Datum:Temp:Abs-Feuchte:Windchill:Wind:
Aussen-T/F 826 05-05-2010 21:09:02 12.5 C 2.86 g/m*3 12.5 C 0 km/h
827 05-05-2010 21:21:02 12.4 C 2.84 g/m*3 12.4 C 0 km/h
828 05-05-2010 21:33:02 12.3 C 2.82 g/m*3 12.3 C 0 km/h
829 05-05-2010 21:45:02 12.3 C 2.93 g/m*3 12.3 C 0 km/h
830 05-05-2010 21:57:02 12.2 C 2.91 g/m*3 12.2 C 0 km/h
831 05-05-2010 22:09:03 12.1 C 3 g/m*3 12.1 C 0 km/h
832 05-05-2010 22:21:02 12 C 3.09 g/m*3 12 C 0 km/h
833 05-05-2010 22:34:02 11.9 C 3.39 g/m*3 11.9 C 0 km/h
834 05-05-2010 22:46:02 11.7 C 3.35 g/m*3 11.7 C 0 km/h
835 05-05-2010 22:58:02 11.7 C 3.35 g/m*3 11.7 C 0 km/h
836 05-05-2010 23:10:02 11.6 C 3.22 g/m*3 11.6 C 0 km/h
837 05-05-2010 23:22:02 11.5 C 3.2 g/m*3 11.5 C 0 km/h
838 05-05-2010 23:34:02 11.6 C 3.33 g/m*3 11.6 C 0 km/h
839 05-05-2010 23:46:02 11.4 C 3.39 g/m*3 11.4 C 0 km/h
840 05-05-2010 23:58:02 11.4 C 3.39 g/m*3 11.4 C 0 km/h

Legende:
   Min
   Max


Maximal/Minimal-Werte vom 29.04.2010 - 05.05.2010

Sensor Min Max Avg
Temp
(Aussen-T/F)
2.5 °C
05-05-2010  06:45:03
28.4 °C
29-04-2010  17:51:02
13.77 °C
Abs-Feuchte
(Aussen-T/F)
2.23 g/m*3
05-05-2010  12:09:02
9.18 g/m*3
02-05-2010  17:18:01
6.1 g/m*3
Windchill
(Aussen-T/F)
2.5 C
05-05-2010  06:45:03
28.4 C
29-04-2010  17:51:02
13.75 C

Die Daten stammen von einer Davis Vantage Pro 2 Wetter-Station und werden unter Linux mit der Software wview2wettercgi und aufbereitet. Alle Angaben erfolgen ohne Gewähr für ihre Vollständigkeit oder Richtigkeit.
Kontakt: Rainer Krienke krienke@uni-koblenz.de . Meine Webseiten an der Uni Koblenz oder privat.
Version: $Revision: 0.78 $